This is the latest recevied weather packets stored in our database for station/object CE4ERM-13. If no packets are shown the sender has not sent any weather packets the latest 10 day(s).
| Time | Temp. | Humidity | Pressure | Rain* | Wind** | Luminosity | Snow |
|---|---|---|---|---|---|---|---|
| 1778067405 | 17.78° C | 47% | 1016 hPa | - | - | - | - |
| 1778066957 | 18.33° C | 47% | 1018.9 hPa | - | - | - | - |
| 1778066805 | 17.78° C | 47% | 1018.9 hPa | - | - | - | - |
| 1778066357 | 18.33° C | 47% | 1019.5 hPa | - | - | - | - |
| 1778065605 | 17.78° C | 47% | 1018.6 hPa | - | - | - | - |
| 1778065004 | 17.78° C | 47% | 1020.9 hPa | - | - | - | - |
| 1778064556 | 18.89° C | 48% | 1018.2 hPa | - | - | - | - |
| 1778064404 | 17.78° C | 47% | 1018.9 hPa | - | - | - | - |
| 1778063956 | 18.89° C | 47% | 1018.1 hPa | - | - | - | - |
| 1778063803 | 17.22° C | 48% | 1019.4 hPa | - | - | - | - |
| 1778063356 | 18.89° C | 46% | 1017.7 hPa | - | - | - | - |
| 1778063203 | 17.22° C | 45% | 1018.6 hPa | - | - | - | - |
| 1778062756 | 18.89° C | 47% | 1019 hPa | - | - | - | - |
| 1778062603 | 15° C | 54% | 1018.9 hPa | - | - | - | - |
| 1778062003 | 18.33° C | 45% | 1017.6 hPa | - | - | - | - |
| 1778061555 | 18.89° C | 47% | 1018.6 hPa | - | - | - | - |
| 1778060955 | 18.89° C | 47% | 1017.2 hPa | - | - | - | - |
| 1778060803 | 18.33° C | 43% | 1016.5 hPa | - | - | - | - |
| 1778060355 | 19.44° C | 47% | 1016.7 hPa | - | - | - | - |
| 1778060203 | 18.89° C | 42% | 1018.4 hPa | - | - | - | - |
| 1778059754 | 19.44° C | 47% | 1017.5 hPa | - | - | - | - |
| 1778059003 | 18.89° C | 42% | 1016.4 hPa | - | - | - | - |
| 1778058554 | 19.44° C | 50% | 1016.7 hPa | - | - | - | - |
| 1778058403 | 18.89° C | 41% | 1016.9 hPa | - | - | - | - |
| 1778057953 | 20° C | 47% | 1016.3 hPa | - | - | - | - |
* Rain since midnight (hover to see other rain measurements)
** Current wind speed in m/s (hover to see current wind gust speed)